User: anonymous
Location: Muenchen
(48.1800°N, 11.5800°E)
Time: 11:13:48
(UTC+02:00)
Language:

ISS - Orbit

View from above orbital plane
View from above orbital plane
View from above satellite
View from above satellite

Ground track
Ground track

The orbit data is extracted from the following two-line orbital elements,

1 25544U 98067A   14245.13470029  .00009883  00000-0  17984-3 0    83
2 25544 051.6461 078.1961 0003662 072.7758 029.4412 15.50171480903264
Epoch (UTC): 02 September 2014 03:13:58
Eccentricity: 0.0003662
inclination: 51.6461°
perigee height: 414 km
apogee height: 419 km
right ascension of ascending node: 78.1961°
argument of perigee: 72.7758°
revolutions per day: 15.50171480
mean anomaly at epoch: 29.4412°
orbit number at epoch: 90326

The dashed part of the orbit path shows where the satellite is in the earth's shadow,  

DLR